View from above orbital plane
|
View from above satellite
|
Ground track
|
The orbit data is extracted from the following two-line orbital elements,
1 39271U 13055G 22229.22734315 .00011559 00000-0 24852-3 0 9995
2 39271 80.9576 128.1655 0517808 289.9305 64.6833 14.65300977465661
Epoch (UTC): | 17 August 2022 05:27:22 |
Eccentricity: | 0.0517808 |
inclination: | 80.9576° |
perigee height: | 311 km |
apogee height: | 1041 km |
right ascension of ascending node: | 128.1655° |
argument of perigee: | 289.9305° |
revolutions per day: | 14.65300977 |
mean anomaly at epoch: | 64.6833° |
orbit number at epoch: | 46566 |
The dashed part of the orbit path shows where the satellite is in the earth's shadow,
|
|